Location: Derby
(52.9213°N, 1.4761°W)
Time: 14:14:30
(UTC+01:00)

A-11 Canister half - All Passes

Search period start: 18 May 2025 00:00
Search period end: 28 May 2025 00:00
Orbit: 1524 x 1684 km, 47.3° (Epoch: 17 May)

Date Brightness Start Highest point End Pass type
(mag) Time Alt. Az. Time Alt. Az. Time Alt. Az.
18 May - 01:03:21 10° W 01:12:44 54° SSW 01:22:23 10° SE visible
18 May - 03:08:27 10° W 03:16:19 28° SW 03:24:21 10° S visible
18 May - 18:33:50 10° SSE 18:39:30 18° SE 18:45:15 10° E daylight
18 May - 20:33:42 10° SW 20:42:27 44° SSE 20:51:29 10° E daylight
18 May - 22:37:07 10° WSW 22:46:32 63° S 22:56:18 10° E visible
19 May - 00:41:33 10° W 00:50:55 55° SSW 01:00:35 10° SE visible
19 May - 02:46:35 10° W 02:54:34 29° SW 03:02:43 10° SSE visible
19 May - 18:12:28 10° SSE 18:17:48 17° SE 18:23:12 10° E daylight
19 May - 20:12:02 10° SW 20:20:41 42° SSE 20:29:37 10° E daylight
19 May - 22:15:21 10° WSW 22:24:44 63° S 22:34:28 10° E visible
20 May - 00:19:44 10° W 00:29:07 56° SSW 00:38:47 10° SE visible
20 May - 02:24:43 10° W 02:32:49 30° SW 02:41:05 10° SSE visible
20 May - 17:51:09 10° SSE 17:56:06 16° SE 18:01:08 10° E daylight
20 May - 19:50:21 10° SW 19:58:55 41° SSE 20:07:46 10° E daylight
20 May - 21:53:35 10° WSW 22:02:56 63° S 22:12:38 10° E visible
20 May - 23:57:57 10° W 00:07:19 57° SSW 00:17:00 10° ESE visible
21 May - 02:02:52 10° W 02:11:04 31° SW 02:19:26 10° SSE visible
21 May - 17:29:52 10° SSE 17:34:25 15° SE 17:39:01 10° E daylight
21 May - 19:28:41 10° SSW 19:37:10 40° SSE 19:45:54 10° E daylight
21 May - 21:31:48 10° WSW 21:41:08 62° S 21:50:47 10° E visible
21 May - 23:36:09 10° W 23:45:31 58° SSW 23:55:11 10° ESE visible
22 May - 01:41:01 10° W 01:49:19 33° SW 01:57:47 10° SSE visible
22 May - 17:08:40 10° SSE 17:12:44 14° SE 17:16:50 10° E daylight
22 May - 19:07:02 10° SSW 19:15:25 38° SSE 19:24:03 10° E daylight
22 May - 21:10:03 10° WSW 21:19:20 61° S 21:28:56 10° E daylight
22 May - 23:14:21 10° W 23:23:43 58° SSW 23:33:23 10° ESE visible
23 May - 01:19:11 10° W 01:27:33 34° SW 01:36:06 10° SSE visible
23 May - 03:28:40 10° WSW 03:30:08 10° WSW 03:31:36 10° SW visible
23 May - 16:47:33 10° SSE 16:51:03 13° SE 16:54:34 10° ESE daylight
23 May - 18:45:23 10° SSW 18:53:40 37° SE 19:02:12 10° E daylight
23 May - 20:48:17 10° WSW 20:57:32 61° S 21:07:07 10° E daylight
23 May - 22:52:34 10° W 23:01:55 59° SSW 23:11:34 10° ESE visible
24 May - 00:57:21 10° W 01:05:47 35° SW 01:14:26 10° SSE visible
24 May - 03:05:49 10° WSW 03:08:26 11° WSW 03:11:03 10° SW visible
24 May - 16:26:35 10° SE 16:29:22 12° ESE 16:32:11 10° ESE daylight
24 May - 18:23:44 10° SSW 18:31:56 36° SE 18:40:20 10° E daylight
24 May - 20:26:31 10° WSW 20:35:44 60° SSE 20:45:16 10° E daylight
24 May - 22:30:47 10° W 22:40:07 60° SSW 22:49:46 10° ESE visible
25 May - 00:35:31 10° W 00:44:01 36° SW 00:52:44 10° SSE visible
25 May - 02:43:23 10° WSW 02:46:44 12° SW 02:50:07 10° SW visible
25 May - 16:05:54 10° SE 16:07:42 11° ESE 16:09:31 10° ESE daylight
25 May - 18:02:06 10° SSW 18:10:11 34° SE 18:18:28 10° E daylight
25 May - 20:04:47 10° WSW 20:13:57 59° SSE 20:23:27 10° E daylight
25 May - 22:08:59 10° W 22:18:19 60° S 22:27:58 10° ESE visible
26 May - 00:13:42 10° W 00:22:15 37° SW 00:31:02 10° SSE visible
26 May - 02:21:06 10° W 02:25:01 13° SW 02:29:01 10° SSW visible
26 May - 17:40:29 10° SSW 17:48:27 33° SE 17:56:37 10° E daylight
26 May - 19:43:02 10° WSW 19:52:10 58° SSE 20:01:36 10° E daylight
26 May - 21:47:12 10° W 21:56:31 61° S 22:06:09 10° ESE visible
26 May - 23:51:53 10° W 00:00:29 38° SSW 00:09:21 10° SSE visible
27 May - 01:58:55 10° W 02:03:20 14° SW 02:07:47 10° SSW visible
27 May - 17:18:52 10° SSW 17:26:43 32° SE 17:34:44 10° E daylight
27 May - 19:21:17 10° WSW 19:30:23 57° SSE 19:39:46 10° E daylight
27 May - 21:25:25 10° W 21:34:42 62° S 21:44:19 10° ESE daylight
27 May - 23:30:03 10° W 23:38:43 40° SSW 23:47:38 10° SSE visible
